Tracking 29892 objects as of 21-Nov-2024
HD Live streaming from Space Station
objects crossing your sky now

INSAT 1B

Track INSAT 1B now!
INSAT 1B is classified as:


NORAD ID: 14318
Int'l Code: 1983-089B
Perigee: 35,703.0 km
Apogee: 35,826.1 km
Inclination: 12.0 °
Period: 1,434.6 minutes
Semi major axis: 42135 km
RCS: 3.9811 m2 (large)
Launch date: August 30, 1983
Source: India (IND)
Launch site: AIR FORCE EASTERN TEST RANGE (AFETR)
Your satellite tracking list
Your tracking list is empty




NASA's NSSDC Master Catalog

Two Line Element Set (TLE):
1 14318U 83089B   24325.09280354  .00000004  00000-0  00000-0 0  9996
2 14318  11.9608 330.9279 0014609 233.5471 308.7963  1.00375860119458
Source of the keplerian elements: AFSPC